Waycross, GA

3:50 AM EDT on August 20, 2017 (GMT -0400)
Waycross-Ware County

Weather History for KAYS - August, 2014

Change the Weather History Date:

Saturday, August 23, 2014

  Actual Average (KAMG) Record (KAMG)
Temperature  
Mean Temperature 90 °F -  
Max Temperature 102 °F 90 °F 99 °F (1968)
Min Temperature 77 °F 70 °F 63 °F (1997)
Cooling Degree Days 24    
Growing Degree Days 40 (Base 50)    
Moisture  
Dew Point 75 °F    
Average Humidity 67    
Maximum Humidity 91    
Minimum Humidity 38    
Precipitation  
Precipitation 0.00 in - - ()
Sea Level Pressure  
Sea Level Pressure 29.92 in    
Wind  
Wind Speed 3 mph (NNW)    
Max Wind Speed 13 mph    
Max Gust Speed 17 mph    
Visibility 10 miles    
Events      
Averages and records for this station are not official NWS values.
T = Trace of Precipitation, MM = Missing Value Source: NWS Daily Summary

Daily Weather History Graph

Daily Weather History Graph

Search for Another Location

Airport or City:

Trip Planner

Search our weather history database for the weather conditions in past years. The results will help you decide how hot, cold, wet, or windy it might be!

Date:

Astronomy

Aug. 23, 2014 Rise Set
Actual Time 7:00 AM EDT 8:03 PM EDT
Civil Twilight 6:35 AM EDT 8:28 PM EDT
Nautical Twilight 6:05 AM EDT 8:58 PM EDT
Astronomical Twilight 5:34 AM EDT 9:29 PM EDT
Moon 5:17 AM EDT (8/23) 6:46 PM EDT (8/23)
Length of Visible Light 13h 53m
Length of Day
13h 03m
Waning Crescent, 3% of the Moon is Illuminated
Aug 23
Waning Crescent
Aug 25
New
Sep 2
First Quarter
Sep 8
Full
Sep 15
Last Quarter

Hourly Weather History & Observations

Time (EDT) Temp. Heat Index Dew Point Humidity Pressure Visibility Wind Dir Wind Speed Gust Speed Precip Events Conditions
12:15 AM 80.8 °F 87.1 °F 76.3 °F 86% 29.99 in 10.0 mi Calm Calm - N/A   Clear
12:35 AM 81.7 °F 89.2 °F 76.8 °F 85% 29.98 in 10.0 mi Calm Calm - N/A   Clear
12:55 AM 80.6 °F 87.1 °F 77.0 °F 89% 29.98 in 10.0 mi Calm Calm - N/A   Clear
1:15 AM 79.9 °F - 76.5 °F 89% 29.97 in 10.0 mi Calm Calm - N/A   Clear
1:35 AM 80.6 °F 86.8 °F 76.3 °F 87% 29.97 in 10.0 mi Calm Calm - N/A   Clear
1:55 AM 81.5 °F 88.3 °F 75.7 °F 83% 29.97 in 10.0 mi Calm Calm - N/A   Clear
2:15 AM 81.7 °F 88.3 °F 75.2 °F 81% 29.97 in 10.0 mi Calm Calm - N/A   Clear
2:35 AM 80.8 °F 86.9 °F 75.9 °F 85% 29.96 in 10.0 mi Calm Calm - N/A   Clear
2:55 AM 79.9 °F - 75.9 °F 88% 29.96 in 10.0 mi WSW 3.5 mph - N/A   Clear
3:15 AM 80.2 °F 85.7 °F 75.7 °F 86% 29.96 in 10.0 mi WSW 3.5 mph - N/A   Clear
3:35 AM 80.6 °F 86.2 °F 75.2 °F 84% 29.95 in 10.0 mi Calm Calm - N/A   Clear
3:55 AM 80.6 °F 86.2 °F 75.4 °F 84% 29.95 in 10.0 mi Calm Calm - N/A   Clear
4:15 AM 79.7 °F - 75.2 °F 86% 29.94 in 10.0 mi SW 3.5 mph - N/A   Clear
4:35 AM 79.7 °F - 75.2 °F 86% 29.94 in 10.0 mi Calm Calm - N/A   Clear
4:55 AM 78.8 °F - 75.0 °F 88% 29.94 in 10.0 mi Calm Calm - N/A   Clear
5:15 AM 79.0 °F - 74.8 °F 87% 29.94 in 10.0 mi Calm Calm - N/A   Clear
5:35 AM 78.3 °F - 74.8 °F 89% 29.94 in 10.0 mi Calm Calm - N/A   Clear
5:55 AM 78.8 °F - 74.7 °F 87% 29.95 in 10.0 mi Calm Calm - N/A   Clear
6:15 AM 78.6 °F - 74.8 °F 88% 29.95 in 10.0 mi Calm Calm - N/A   Clear
6:35 AM 77.9 °F - 74.7 °F 90% 29.96 in 10.0 mi Calm Calm - N/A   Clear
6:55 AM 77.9 °F - 75.0 °F 91% 29.96 in 10.0 mi Calm Calm - N/A   Clear
7:15 AM 77.9 °F - 75.2 °F 91% 29.96 in 10.0 mi Calm Calm - N/A   Clear
7:35 AM 79.0 °F - 75.4 °F 89% 29.96 in 10.0 mi Calm Calm - N/A   Clear
7:55 AM 81.1 °F 87.6 °F 75.9 °F 84% 29.97 in 10.0 mi Calm Calm - N/A   Clear
8:15 AM 82.2 °F 89.9 °F 76.3 °F 82% 29.97 in 10.0 mi Calm Calm - N/A   Clear
8:35 AM 84.0 °F 93.3 °F 76.6 °F 78% 29.98 in 10.0 mi NNW 5.8 mph - N/A   Clear
8:55 AM 85.1 °F 95.4 °F 76.6 °F 76% 29.98 in 10.0 mi NW 5.8 mph - N/A   Clear
9:15 AM 87.1 °F 98.8 °F 77.2 °F 72% 29.98 in 10.0 mi NNW 3.5 mph - N/A   Clear
9:35 AM 88.5 °F 101.1 °F 77.4 °F 69% 29.98 in 10.0 mi North 3.5 mph - N/A   Clear
9:55 AM 90.0 °F 103.8 °F 77.7 °F 67% 29.98 in 10.0 mi NNW 4.6 mph - N/A   Clear
10:15 AM 91.8 °F 106.1 °F 77.7 °F 63% 29.98 in 10.0 mi NNW 5.8 mph - N/A   Clear
10:35 AM 93.6 °F 110.5 °F 78.8 °F 62% 29.98 in 10.0 mi NNW 5.8 mph - N/A   Clear
10:55 AM 94.1 °F 110.5 °F 78.3 °F 60% 29.98 in 10.0 mi North 5.8 mph - N/A   Clear
11:15 AM 95.4 °F 111.6 °F 77.7 °F 57% 29.98 in 10.0 mi NNW 6.9 mph - N/A   Clear
11:35 AM 96.1 °F 111.9 °F 77.5 °F 55% 29.97 in 10.0 mi NNW 5.8 mph - N/A   Clear
11:55 AM 97.5 °F 111.5 °F 75.9 °F 50% 29.97 in 10.0 mi North 9.2 mph - N/A   Clear
12:15 PM 98.1 °F 112.1 °F 75.7 °F 49% 29.97 in 10.0 mi North 9.2 mph - N/A   Scattered Clouds
12:35 PM 98.6 °F 113.5 °F 76.6 °F 49% 29.96 in 10.0 mi NW 6.9 mph - N/A   Scattered Clouds
12:55 PM 98.1 °F 112.1 °F 75.7 °F 49% 29.95 in 10.0 mi NNW 3.5 mph - N/A   Scattered Clouds
1:15 PM 100.4 °F 114.5 °F 75.7 °F 45% 29.94 in 10.0 mi North 12.7 mph - N/A   Scattered Clouds
1:35 PM 99.9 °F 113.2 °F 75.4 °F 45% 29.94 in 10.0 mi North 5.8 mph - N/A   Scattered Clouds
1:55 PM 100.0 °F 114.5 °F 75.6 °F 46% 29.92 in 10.0 mi NW 10.4 mph 16.1 mph N/A   Scattered Clouds
2:15 PM 100.9 °F 114.1 °F 74.7 °F 43% 29.92 in 10.0 mi NNW 10.4 mph - N/A   Scattered Clouds
2:35 PM 100.9 °F 113.2 °F 74.3 °F 42% 29.91 in 10.0 mi NNW 10.4 mph - N/A   Clear
2:55 PM 101.7 °F 114.9 °F 74.7 °F 42% 29.90 in 10.0 mi North 10.4 mph - N/A   Scattered Clouds
3:15 PM 100.9 °F 113.2 °F 74.1 °F 42% 29.90 in 10.0 mi North 10.4 mph - N/A   Scattered Clouds
3:35 PM 101.8 °F 114.4 °F 73.8 °F 41% 29.89 in 10.0 mi North 3.5 mph - N/A   Scattered Clouds
3:55 PM 102.2 °F 114.4 °F 73.4 °F 40% 29.88 in 10.0 mi North 10.4 mph - N/A   Clear
4:15 PM 101.8 °F 112.6 °F 72.5 °F 39% 29.87 in 10.0 mi North 6.9 mph - N/A   Clear
4:35 PM 101.7 °F 113.1 °F 72.9 °F 40% 29.87 in 10.0 mi NNW 8.1 mph 17.3 mph N/A   Clear
4:55 PM 102.0 °F 113.0 °F 73.0 °F 39% 29.86 in 10.0 mi North 9.2 mph - N/A   Clear
5:15 PM 101.7 °F 113.1 °F 73.0 °F 40% 29.85 in 10.0 mi North 9.2 mph - N/A   Clear
5:35 PM 101.7 °F 114.0 °F 73.6 °F 41% 29.85 in 10.0 mi NNW 9.2 mph - N/A   Clear
5:55 PM 100.9 °F 110.6 °F 72.0 °F 39% 29.84 in 10.0 mi North 10.4 mph - N/A   Clear
6:15 PM 100.4 °F 108.6 °F 70.9 °F 38% 29.84 in 10.0 mi North 9.2 mph - N/A   Clear
6:35 PM 99.3 °F 109.3 °F 72.3 °F 42% 29.83 in 10.0 mi North 8.1 mph - N/A   Clear
6:55 PM 97.5 °F 108.2 °F 73.4 °F 46% 29.83 in 10.0 mi North 5.8 mph - N/A   Clear
7:15 PM 95.4 °F 106.1 °F 73.9 °F 50% 29.83 in 10.0 mi North 3.5 mph - N/A   Clear
7:35 PM 94.6 °F 105.8 °F 74.3 °F 52% 29.84 in 10.0 mi North 3.5 mph - N/A   Clear
7:55 PM 93.2 °F 105.0 °F 75.2 °F 56% 29.84 in 10.0 mi Calm Calm - N/A   Clear
8:15 PM 91.2 °F 101.4 °F 74.7 °F 58% 29.85 in 10.0 mi Calm Calm - N/A   Clear
8:35 PM 89.1 °F 99.6 °F 75.4 °F 64% 29.85 in 10.0 mi Calm Calm - N/A   Clear
8:55 PM 88.2 °F 99.0 °F 76.1 °F 67% 29.85 in 10.0 mi Calm Calm - N/A   Clear
9:15 PM 86.2 °F 96.4 °F 76.1 °F 72% 29.86 in 10.0 mi Calm Calm - N/A   Clear
9:35 PM 85.6 °F 96.8 °F 77.2 °F 76% 29.86 in 10.0 mi Calm Calm - N/A   Clear
9:55 PM 84.6 °F 94.3 °F 76.6 °F 77% 29.86 in 10.0 mi Calm Calm - N/A   Clear
10:15 PM 83.7 °F 93.4 °F 77.4 °F 81% 29.86 in 10.0 mi Calm Calm - N/A   Clear
10:35 PM 83.1 °F 92.6 °F 77.4 °F 83% 29.86 in 10.0 mi Calm Calm - N/A   Clear
10:55 PM 81.7 °F 89.2 °F 76.8 °F 85% 29.87 in 10.0 mi SSW 4.6 mph - N/A   Clear
11:15 PM 81.5 °F 89.0 °F 77.0 °F 86% 29.88 in 10.0 mi South 9.2 mph - N/A   Clear
11:35 PM 85.1 °F 94.5 °F 75.9 °F 74% 29.88 in 10.0 mi South 8.1 mph - N/A   Clear
11:55 PM 84.6 °F 93.2 °F 75.4 °F 74% 29.87 in 10.0 mi SSW 4.6 mph - N/A   Clear